Date,TemperatureHighF,TemperatureAvgF,TemperatureLowF,DewpointHighF,DewpointAvgF,DewpointLowF,HumidityHigh,HumidityAvg,HumidityLow,PressureMaxIn,PressureMinIn,WindSpeedMaxMPH,WindSpeedAvgMPH,GustSpeedMaxMPH,PrecipitationSumIn
2013-1-1,98.0,83.2,75.0,87.0,80.3,75.0,99,92,65,29.80,29.70,4,1,11,0.28
2013-1-2,98.0,85.6,77.0,87.0,81.7,77.0,99,89,63,29.76,29.65,4,1,15,0.01
2013-1-3,101.0,86.4,73.0,82.0,79.0,73.0,99,81,52,29.76,29.65,4,1,11,0.01
2013-1-4,96.0,84.3,76.0,86.0,81.4,76.0,99,92,69,29.75,29.67,3,1,13,0.21
2013-1-5,98.0,83.6,75.0,84.0,79.7,75.0,99,89,59,29.81,29.68,4,1,14,0.09
2013-1-6,98.0,83.6,76.0,83.0,79.1,76.0,99,88,55,29.80,29.72,6,1,14,0.11
2013-1-7,96.0,82.3,75.0,86.0,79.4,75.0,99,91,67,29.81,29.71,5,1,14,1.04
2013-1-8,96.0,83.2,74.0,85.0,79.4,74.0,99,89,66,29.78,29.64,3,1,13,0.19
2013-1-9,98.0,85.5,75.0,85.0,80.8,75.0,99,87,64,29.69,29.54,3,1,10,0.01
2013-1-10,100.0,85.9,74.0,86.0,80.6,74.0,99,86,62,29.68,29.54,4,1,10,0.00
2013-1-11,98.0,86.1,77.0,87.0,81.6,77.0,99,87,65,29.79,29.65,4,1,12,0.00
2013-1-12,100.0,86.6,78.0,89.0,83.2,78.0,99,90,65,29.80,29.72,3,1,13,0.11
2013-1-13,102.0,87.2,77.0,84.0,79.3,77.0,99,80,48,29.78,29.69,5,1,11,0.01
2013-1-14,98.0,83.9,72.0,83.0,76.7,72.0,99,82,52,29.76,29.66,4,1,9,0.00
2013-1-15,98.0,85.2,72.0,85.0,79.4,72.0,99,84,56,29.76,29.66,3,1,12,0.00
2013-1-16,96.0,83.9,76.0,86.0,79.7,76.0,99,88,60,29.78,29.68,3,0,8,0.08
2013-1-17,98.0,84.6,74.0,87.0,78.4,74.0,99,84,54,29.76,29.67,4,1,11,0.01
2013-1-18,96.0,83.3,73.0,87.0,79.7,73.0,99,89,65,29.76,29.63,2,0,8,0.11
2013-1-19,87.0,78.5,76.0,86.0,78.5,76.0,99,99,97,29.70,29.56,2,0,8,2.43
2013-1-20,98.0,83.4,76.0,88.0,80.8,76.0,99,92,67,29.68,29.54,3,0,8,0.17
2013-1-21,95.0,82.2,76.0,89.0,81.3,76.0,99,97,80,29.63,29.49,2,0,9,0.96
2013-1-22,88.0,78.7,76.0,88.0,78.7,76.0,99,99,99,29.52,29.38,2,0,9,1.78
2013-1-23,88.0,81.7,78.0,88.0,81.7,78.0,99,99,99,29.41,29.19,7,2,20,4.65
2013-1-24,89.0,81.1,77.0,88.0,80.9,77.0,99,99,90,29.46,29.19,10,2,29,1.31
2013-1-25,105.0,87.9,77.0,90.0,81.9,77.0,99,84,55,29.52,29.35,5,1,14,0.56
2013-1-26,105.0,88.9,81.0,90.0,82.7,77.0,96,83,59,29.54,29.38,4,1,13,0.01
2013-1-27,109.0,91.4,82.0,89.0,84.9,82.0,99,83,51,29.54,29.39,3,1,13,0.01
2013-1-28,98.0,82.6,78.0,86.0,81.5,78.0,99,96,69,29.62,29.47,1,0,12,0.07
2013-1-29,114.0,91.6,77.0,90.0,82.9,77.0,99,81,33,29.63,29.49,4,1,14,0.09
2013-1-30,106.0,90.7,79.0,90.0,83.8,77.0,99,82,40,29.73,29.58,4,1,14,0.00
2013-1-31,100.0,86.4,77.0,90.0,83.1,77.0,99,90,73,29.74,29.65,4,1,11,0.00
2013-2-1,102.0,87.3,79.0,90.0,84.7,79.0,99,92,56,29.74,29.60,4,0,11,0.00
2013-2-2,107.0,90.6,81.0,88.0,82.3,73.0,99,80,37,29.70,29.61,4,1,13,0.00
2013-2-3,104.0,88.2,74.0,87.0,80.0,70.0,99,80,40,29.79,29.64,5,1,12,0.00
2013-2-4,99.0,87.5,76.0,90.0,83.0,76.0,99,88,66,29.85,29.74,5,1,13,0.00
2013-2-5,100.0,88.6,78.0,84.0,77.5,70.0,99,75,39,29.89,29.78,3,0,11,0.00
2013-2-6,100.0,86.7,76.0,85.0,77.6,70.0,99,78,38,29.85,29.72,4,1,13,0.05
2013-2-7,99.0,85.7,76.0,81.0,76.8,66.0,99,79,35,29.83,29.69,2,1,15,0.01
2013-2-8,97.0,83.1,60.0,85.0,78.5,60.0,99,87,61,29.82,29.72,4,1,11,0.09
2013-2-9,100.0,86.4,77.0,87.0,80.9,77.0,99,85,57,29.83,29.71,4,1,10,0.01
2013-2-10,99.0,84.6,76.0,88.0,81.4,76.0,99,91,63,29.83,29.72,2,0,8,0.69
2013-2-11,98.0,87.3,77.0,87.0,82.7,77.0,99,87,65,29.82,29.71,4,1,12,0.25
2013-2-12,100.0,85.0,76.0,87.0,81.6,76.0,99,90,59,29.81,29.70,2,0,7,0.07
2013-2-13,98.0,83.9,74.0,85.0,80.6,74.0,99,91,58,29.78,29.67,3,1,9,0.01
2013-2-14,100.0,84.8,74.0,89.0,81.4,74.0,99,90,63,29.76,29.66,2,0,9,0.19
2013-2-15,98.0,83.5,75.0,88.0,81.1,75.0,99,93,67,29.74,29.64,3,0,12,0.15
2013-2-16,100.0,86.1,75.0,90.0,82.5,75.0,99,90,64,29.73,29.61,4,1,11,0.32
2013-2-17,100.0,86.4,76.0,90.0,82.7,76.0,99,90,66,29.72,29.58,4,1,10,0.13
2013-2-18,98.0,86.1,78.0,88.0,83.4,78.0,99,92,69,29.67,29.55,3,0,9,0.00
2013-2-19,101.0,84.6,78.0,90.0,82.7,74.0,99,94,63,29.71,29.58,3,0,9,0.11
2013-2-20,101.0,87.0,78.0,90.0,84.0,78.0,99,91,65,29.70,29.57,4,1,10,0.01
2013-2-21,97.0,83.8,77.0,90.0,82.1,77.0,99,95,72,29.70,29.60,4,0,12,0.19
2013-2-22,100.0,84.0,76.0,90.0,81.4,76.0,99,92,70,29.71,29.60,3,0,10,0.13
2013-2-23,99.0,82.3,76.0,88.0,80.3,76.0,99,94,65,29.78,29.61,2,0,6,0.13
2013-2-24,98.0,82.8,74.0,89.0,81.3,74.0,99,95,71,29.75,29.64,4,0,9,0.02
2013-2-25,98.0,86.0,75.0,89.0,82.3,75.0,99,90,68,29.73,29.61,4,1,11,0.01
2013-2-26,98.0,85.6,75.0,87.0,81.2,74.0,99,88,64,29.70,29.56,5,1,10,0.00
2013-2-27,100.0,83.9,77.0,89.0,81.2,77.0,99,92,65,29.65,29.53,4,0,10,1.03
2013-2-28,98.0,81.9,77.0,90.0,81.3,77.0,99,97,77,29.63,29.52,3,0,8,1.38
2013-3-1,99.0,84.2,79.0,90.0,83.8,79.0,99,98,75,29.65,29.53,2,0,8,0.01
2013-3-2,92.0,82.5,79.0,90.0,82.4,79.0,99,99,92,29.62,29.45,2,0,5,0.00
2013-3-3,98.0,83.2,77.0,90.0,82.7,77.0,99,97,78,29.57,29.41,3,0,9,0.53
2013-3-4,99.0,80.1,77.0,90.0,79.7,77.0,99,98,75,29.57,29.47,2,0,7,1.09
2013-3-5,100.0,81.8,77.0,90.0,80.8,77.0,99,97,71,29.66,29.52,2,0,11,0.24
2013-3-6,95.0,83.3,78.0,90.0,82.8,78.0,99,98,84,29.72,29.58,2,0,12,0.01
2013-3-7,96.0,84.0,78.0,88.0,82.6,78.0,99,95,69,29.75,29.65,2,1,8,0.01
2013-3-8,93.0,83.2,78.0,86.0,80.8,78.0,99,93,66,29.78,29.66,2,1,8,0.01
2013-3-9,93.0,81.3,75.0,87.0,79.9,75.0,99,95,67,29.78,29.68,3,0,8,0.47
2013-3-10,92.0,81.9,75.0,87.0,79.9,75.0,99,94,71,29.78,29.67,2,1,8,0.01
2013-3-11,94.0,82.4,75.0,81.0,77.8,75.0,99,87,56,29.75,29.65,3,1,11,0.24
2013-3-12,90.0,79.4,74.0,88.0,79.3,74.0,99,99,91,29.75,29.63,3,1,12,0.53
2013-3-13,86.0,78.2,74.0,86.0,78.2,74.0,99,99,99,29.69,29.57,3,0,8,0.54
2013-3-14,93.0,82.2,76.0,84.0,77.4,71.0,99,86,59,29.73,29.57,4,1,9,0.11
2013-3-15,99.0,83.1,70.0,83.0,71.5,60.0,99,73,31,29.82,29.70,2,0,9,0.00
2013-3-16,98.0,82.1,69.0,80.0,74.0,69.0,99,80,39,29.84,29.72,3,0,11,0.00
2013-3-17,98.0,83.4,70.0,83.0,75.2,70.0,99,80,43,29.83,29.69,2,0,8,0.00
2013-3-18,99.0,84.1,69.0,87.0,71.6,54.0,99,72,31,29.79,29.67,4,0,8,0.00
2013-3-19,100.0,84.1,75.0,87.0,80.5,75.0,99,90,56,29.81,29.72,3,1,9,0.04
2013-3-20,96.0,85.3,74.0,89.0,81.3,74.0,99,89,66,29.82,29.68,3,0,11,0.01
2013-3-21,98.0,84.9,76.0,90.0,81.4,76.0,99,90,61,29.83,29.70,4,1,11,0.08
2013-3-22,90.0,80.9,76.0,90.0,80.9,76.0,99,99,99,29.88,29.75,2,0,7,0.43
2013-3-23,83.0,79.8,77.0,83.0,79.8,77.0,99,99,99,29.88,29.78,4,0,10,0.74
2013-3-24,90.0,82.2,78.0,89.0,82.2,78.0,99,99,93,29.86,29.75,4,1,10,0.11
2013-3-25,92.0,83.5,77.0,89.0,82.2,77.0,99,96,80,29.83,29.73,3,1,9,0.47
2013-3-26,92.0,82.8,78.0,87.0,82.0,78.0,99,97,79,29.83,29.73,3,1,10,0.01
2013-3-27,96.0,81.2,73.0,90.0,79.7,73.0,99,95,66,29.87,29.75,4,0,11,0.39
2013-3-28,91.0,79.9,74.0,89.0,78.6,74.0,99,95,70,29.88,29.78,4,1,11,0.19
2013-3-29,96.0,81.6,74.0,89.0,78.6,73.0,99,92,48,29.87,29.76,2,0,10,0.09
2013-3-30,97.0,82.2,72.0,86.0,77.7,72.0,99,88,53,29.87,29.74,3,0,11,0.01
2013-3-31,96.0,83.1,71.0,88.0,75.2,-99.9,99,83,55,29.88,29.76,3,0,9,0.02
2013-4-1,96.0,82.0,70.0,88.0,77.4,70.0,99,88,60,29.87,29.77,3,0,9,0.05
2013-4-2,96.0,82.8,71.0,87.0,77.7,71.0,99,86,57,29.86,29.75,3,1,11,0.05
2013-4-3,97.0,83.7,73.0,88.0,79.2,73.0,99,88,55,29.88,29.77,3,0,11,0.02
2013-4-4,96.0,81.0,73.0,86.0,77.4,73.0,99,90,52,29.95,29.83,2,1,11,0.25
2013-4-5,76.0,74.9,74.0,76.0,74.9,74.0,99,99,99,29.92,29.85,1,0,4,0.25
2013-4-10,88.0,79.2,73.0,88.0,79.2,73.0,99,99,99,29.75,29.63,2,0,7,1.28
2013-4-11,86.0,75.8,72.0,86.0,75.8,72.0,99,99,99,29.71,29.58,4,2,15,0.31
2013-4-12,87.0,78.0,74.0,87.0,78.0,74.0,99,99,99,29.73,29.62,4,2,11,0.01
2013-4-13,93.0,81.2,72.0,87.0,79.6,72.0,99,95,72,29.77,29.65,3,1,11,0.26
2013-4-14,96.0,82.1,72.0,88.0,79.2,72.0,99,91,67,29.81,29.69,2,0,9,0.00
2013-4-15,96.0,82.4,71.0,88.0,79.1,71.0,99,90,68,29.78,29.66,2,0,10,0.00
2013-4-16,94.0,80.2,72.0,85.0,78.2,72.0,99,94,71,29.84,29.72,3,0,8,0.00
2013-4-17,97.0,81.6,69.0,87.0,77.3,69.0,99,88,61,29.86,29.74,4,0,11,0.00
2013-4-18,96.0,81.7,66.0,86.0,77.3,66.0,99,88,60,29.89,29.77,2,0,10,0.00
2013-4-19,95.0,81.0,69.0,87.0,77.2,69.0,99,89,65,29.88,29.76,3,1,9,0.00
2013-4-20,92.0,80.4,64.0,85.0,77.5,64.0,99,91,70,29.84,29.69,2,0,8,0.00
2013-4-21,95.0,81.1,70.0,85.0,78.1,70.0,99,91,70,29.82,29.72,3,0,7,0.00
2013-4-22,96.0,83.4,72.0,90.0,80.9,72.0,99,93,72,29.87,29.76,2,0,8,0.00
2013-4-23,97.0,82.8,71.0,89.0,79.2,71.0,99,90,64,29.92,29.80,4,1,8,0.00
2013-4-24,96.0,81.2,70.0,89.0,77.2,70.0,99,89,61,29.95,29.82,3,0,11,0.00
2013-4-25,98.0,81.4,69.0,88.0,76.7,69.0,99,88,51,29.96,29.84,2,0,7,0.00
2013-4-26,92.0,80.9,74.0,84.0,78.0,74.0,99,91,68,29.96,29.87,3,1,11,0.01
2013-4-27,91.0,78.9,73.0,87.0,77.7,73.0,99,96,74,29.94,29.83,2,0,11,0.37
2013-4-28,90.0,80.1,74.0,81.0,77.2,74.0,99,91,64,29.94,29.83,2,1,9,0.08
2013-4-29,88.0,78.8,73.0,83.0,78.0,73.0,99,97,80,29.94,29.85,4,1,9,0.15
2013-4-30,87.0,79.5,74.0,87.0,79.5,74.0,99,99,99,29.90,29.82,3,1,12,0.18
2013-5-1,88.0,81.1,76.0,85.0,79.4,76.0,99,94,74,29.88,29.78,5,2,11,0.01
2013-5-2,89.0,78.4,73.0,85.0,77.8,73.0,99,97,82,29.91,29.82,2,1,8,0.12
2013-5-3,85.0,77.0,72.0,85.0,77.0,72.0,99,99,95,29.98,29.87,3,0,10,0.40
2013-5-4,89.0,77.9,71.0,87.0,77.4,71.0,99,98,83,30.01,29.91,2,1,10,0.01
2013-5-5,88.0,77.6,71.0,83.0,75.9,71.0,99,94,74,29.96,29.85,2,0,8,0.00
2013-5-6,89.0,75.2,69.0,81.0,73.4,69.0,99,94,62,29.94,29.81,2,1,8,0.00
2013-5-7,86.0,75.5,70.0,81.0,74.2,70.0,99,95,77,29.92,29.81,2,0,9,0.00
2013-5-8,81.0,73.5,71.0,81.0,73.5,71.0,99,99,99,29.96,29.75,3,1,10,0.34
2013-5-9,80.0,74.1,72.0,80.0,74.1,72.0,99,99,99,29.89,29.78,4,1,9,1.72
2013-5-10,90.0,77.6,72.0,83.0,76.2,72.0,99,95,78,29.85,29.77,4,2,11,0.05
2013-5-11,88.0,75.5,70.0,85.0,73.5,-99.9,99,98,84,29.86,29.76,5,2,11,0.69
2013-5-12,89.0,78.2,73.0,84.0,75.4,-99.9,99,93,72,29.85,29.77,4,2,11,0.05
2013-5-13,94.0,80.5,72.0,80.0,75.8,72.0,99,87,56,29.85,29.71,4,1,10,0.00
2013-5-14,95.0,80.4,69.0,85.0,75.6,69.0,99,87,56,29.75,29.63,4,1,8,0.00
2013-5-15,93.0,78.9,69.0,85.0,75.9,69.0,99,91,67,29.76,29.67,3,0,9,0.00
2013-5-16,95.0,79.1,69.0,87.0,77.2,69.0,99,94,69,29.78,29.67,3,0,7,0.00
2013-5-17,88.0,73.0,73.0,82.0,55.6,-99.9,99,96,75,29.85,29.73,4,1,9,0.00
2013-5-18,96.0,78.5,71.0,85.0,72.2,-99.9,99,95,64,29.84,29.73,2,0,7,0.00
2013-5-19,86.0,77.2,74.0,85.0,77.1,74.0,99,99,97,29.86,29.75,5,1,10,0.04
2013-5-20,96.0,80.0,72.0,82.0,76.8,72.0,99,91,55,29.85,29.73,4,1,8,0.00
2013-5-21,97.0,81.1,71.0,87.0,78.7,71.0,99,93,67,29.83,29.70,2,0,8,0.00
2013-5-22,96.0,80.7,71.0,89.0,78.4,71.0,99,93,68,29.79,29.66,2,0,8,0.00
2013-5-23,93.0,79.8,71.0,88.0,78.5,71.0,99,96,78,29.72,29.62,3,1,7,0.02
2013-5-24,81.0,74.7,69.0,77.0,72.5,69.0,99,93,70,29.81,29.67,2,0,5,0.02
2013-5-25,85.0,71.9,60.0,67.0,60.6,56.0,99,71,43,29.91,29.78,7,1,17,0.00
2013-5-26,86.0,73.0,61.0,73.0,65.6,61.0,99,80,50,29.90,29.79,4,1,11,0.00
2013-5-27,84.0,74.3,69.0,80.0,73.0,69.0,99,95,75,29.91,29.83,5,2,13,0.28
2013-5-28,87.0,74.0,68.0,78.0,72.0,68.0,99,94,69,29.91,29.81,4,2,11,0.11
2013-5-29,88.0,75.9,69.0,80.0,74.0,69.0,99,94,68,29.88,29.79,7,2,12,0.08
2013-5-30,89.0,76.9,69.0,84.0,75.3,69.0,99,95,71,29.87,29.79,4,2,11,0.14
2013-5-31,87.0,75.6,70.0,83.0,74.7,70.0,99,97,71,29.88,29.79,5,2,13,0.33
2013-6-1,88.0,75.8,70.0,82.0,74.5,70.0,99,96,69,29.85,29.74,3,1,11,0.13
2013-6-2,91.0,76.6,69.0,81.0,72.7,69.0,99,89,59,29.78,29.67,2,1,8,0.02
2013-6-3,92.0,75.4,62.0,78.0,69.9,62.0,99,86,51,29.81,29.67,2,0,9,0.00
2013-6-4,86.0,75.5,69.0,76.0,72.0,69.0,99,90,61,29.89,29.78,5,2,11,0.01
2013-6-5,89.0,77.0,70.0,79.0,72.4,70.0,99,87,54,29.91,29.81,3,1,10,0.01
2013-6-6,90.0,75.7,71.0,83.0,74.4,71.0,99,96,67,29.89,29.81,3,1,8,0.13
2013-6-7,86.0,75.1,71.0,80.0,74.1,71.0,99,96,75,29.88,29.81,4,2,16,0.01
2013-6-8,85.0,75.9,70.0,81.0,74.0,70.0,99,94,74,29.85,29.77,7,2,12,0.02
2013-6-9,85.0,76.3,70.0,82.0,75.3,70.0,99,96,81,29.83,29.72,2,1,8,0.06
2013-6-10,88.0,77.5,71.0,81.0,75.5,71.0,99,94,73,29.78,29.70,5,2,11,0.00
2013-6-11,87.0,76.1,70.0,82.0,74.5,70.0,99,95,72,29.77,29.69,2,1,8,0.04
2013-6-12,92.0,77.1,66.0,83.0,74.4,66.0,99,92,65,29.74,29.64,2,0,9,0.01
2013-6-13,95.0,80.1,71.0,86.0,75.9,71.0,99,88,58,29.71,29.60,3,0,8,0.00
2013-6-14,93.0,78.1,67.0,81.0,74.0,67.0,99,89,64,29.68,29.59,4,0,9,0.00
2013-6-15,90.0,76.3,67.0,75.0,67.7,62.0,99,78,44,29.77,29.65,3,1,8,0.00
2013-6-16,84.0,72.7,64.0,73.0,68.6,64.0,99,88,60,29.78,29.64,3,1,8,0.00
2013-6-17,90.0,76.7,68.0,76.0,71.5,68.0,99,86,55,29.72,29.62,3,0,8,0.00
2013-6-18,92.0,75.5,63.0,79.0,70.6,63.0,99,87,56,29.78,29.67,2,0,10,0.00
2013-6-19,90.0,73.9,63.0,74.0,69.1,63.0,99,87,55,29.82,29.73,2,0,9,0.00
2013-6-20,89.0,75.4,69.0,74.0,71.1,69.0,99,88,55,29.84,29.75,4,1,9,0.00